Weather in Ovruch

Ukraine / Zhytomyr Region     51°19′12″N   28°47′58″E
temp.,
°C
wind,
m/s
gust,
m/s
humid.,
%
clouds,
%
prec.,
mm/h
press.,
hPa
HPBL,
m
19 may, wed
wed1900:00+12nne229495 0.1 99934
03:00+11nnw349695 0.1 100075
06:00+11nnw3799100 0.4 1000337
09:00+11nw4897100 0.7 1001475
12:00+11nw5897100 1.1 1003546
15:00+10nw51195100 2.2 1005697
18:00+11nw61390100 1.7 1006915
21:00+10nw51290100 2.0 1007675
20 may, thu
thu2000:00+9wnw51391100 0.0 1007579
03:00+8wnw5139263 0.0 1007499
06:00+8wnw51393100 0.0 1008447
09:00+12nw698168 0.0 1008855
12:00+16nw586058 0.1 10091577
15:00+16nw566273 0.4 10091197
18:00+15nw4663100 0.1 1010934
21:00+11nnw3679100 0.1 1012106
21 may, fri
fri2100:00+10nw3784100 0.0 1013128
03:00+9nnw3986100 0.0 1015180
06:00+8nnw2691100 0.0 1016130
09:00+13n346736 0.0 1017539
12:00+16nnw3445100 0.0 10171356
15:00+18n2339100 0.0 10171803
18:00+18ese124226 0.0 10161731
21:00+14ne126396 0.0 101818
22 may, sat
sat2200:00+12sse24669 0.0 101883
03:00+8s22765 0.0 101815
06:00+8s22795 0.0 101813
09:00+15sse34623 0.0 1018396
12:00+19sse34473 0.0 10161432
15:00+21sse45463 0.0 10151836
18:00+20s3655100 0.0 10141338
21:00+15sse3981100 0.0 1013194
23 may, sun
sun2300:00+12s3591100 0.0 1013101
03:00+11s3993100 0.0 1011173
06:00+12s3790100 0.0 1011170
09:00+15ssw3777100 0.0 1010293
12:00+18wsw6960100 0.0 10101316
15:00+17wnw4663100 0.0 1011981
18:00+17nw3558100 0.0 10111393
21:00+13wnw2274100 0.1 101223